Hlavní strana
METAR-TAF:

METAR-TAF

Letiště :

Nairobi, Keňa

zeměpisná šířka: 01-19S, zeměpisná délka: 036-49E, výška: 1683 m

Aktuální stav počasí

Zpráva byla vytvořena před 31 minutami, v 18:00 UTC
Východní vítr 12 kt
Teplota 22°C
Vlhkost vzduchu 46%
Tlak 1020 hPa
Viditelnost 10 km a více
Žádná oblačnost pod 1500 m, nevyskytují se cumulonimby.

METAR: HKNW 161800Z 10012KT CAVOK 22/10 Q1020

Čas: 21:31 (18:31 UTC)


TAF: chybějící

Stav a předpovědi počasí z více než 4 000 letišť (zprávy METAR a TAF).

Červené a žluté tečky na mapě představují dostupné meteorologické stanice.

Když kurzor umístíte na tečku, zobrazí se název stanice.

Pak kliknutím zobrazíte stav a předpověď počasí.

Chcete-li změnit mapu, kliknutím na zelené tlačítko se znaménkem +mapu přiblížíte, kliknutím na zelené tlačítko se znaménkem – mapu oddálíte a kliknutím na zelené šipky přejdete na sousední mapy.


METAR-TAF: